Total_Precipitation_Accumulation
0.00 0.00 0.00 0.00 0.00 0.00 0.00 0.00 0.00 0.00 0.00 0.00 0.00 0.00 0.00 0.00 0.00 0.00 0.00 0.00 0.00 0.00 0.00 0.00 0.00 0.00 0.00 0.00 0.00 0.00 0.00 0.00 0.00 0.00 0.00 0.00 0.00 0.00 0.00 0.00 0.00 0.01 0.01 0.02 0.02 0.02 0.02 0.02 0.01 0.01 0.01 0.00 0.00 0.00 0.00 0.00 0.00 0.00 0.04 0.07 0.11 0.11 0.14 0.13 0.15 0.24 0.26 0.32 0.31 0.28 0.31 0.29 0.40 0.57 0.49 0.64 0.52 0.54 0.44 0.46 0.63 0.78 0.52 0.57 0.60 0.62
0.00 0.00 0.00 0.00 0.00 0.00 0.00 0.00 0.00 0.00 0.00 0.00 0.00 0.00 0.00 0.00 0.00 0.00 0.00 0.00 0.00 0.00 0.00 0.00 0.00 0.00 0.00 0.00 0.00 0.00 0.00 0.00 0.00 0.00 0.00 0.00 0.00 0.00 0.01 0.00 0.01 0.01 0.02 0.03 0.03 0.03 0.02 0.02 0.01 0.01 0.00 0.00 0.00 0.00 0.00 0.00 0.00 0.01 0.02 0.04 0.12 0.13 0.13 0.15 0.12 0.16 0.30 0.26 0.30 0.34 0.37 0.54 0.29 0.29 0.50 0.34 0.30 0.38 0.63 0.62 0.50 0.66 0.65 0.56 0.63 0.60
0.00 0.00 0.00 0.00 0.00 0.00 0.00 0.00 0.00 0.00 0.00 0.00 0.00 0.00 0.00 0.00 0.00 0.00 0.00 0.00 0.00 0.00 0.00 0.00 0.00 0.00 0.00 0.00 0.00 0.00 0.00 0.00 0.00 0.00 0.00 0.00 0.00 0.00 0.00 0.01 0.04 0.02 0.03 0.04 0.03 0.03 0.02 0.02 0.01 0.01 0.01 0.01 0.00 0.00 0.00 0.00 0.01 0.01 0.02 0.03 0.06 0.10 0.16 0.12 0.13 0.16 0.18 0.21 0.22 0.28 0.27 0.26 0.37 0.46 0.45 0.88 0.83 0.57 0.50 0.70 0.69 1.02 0.83 0.78 0.60 0.57
0.00 0.00 0.00 0.00 0.00 0.00 0.00 0.00 0.00 0.00 0.00 0.00 0.00 0.00 0.00 0.00 0.00 0.00 0.00 0.00 0.00 0.00 0.00 0.00 0.00 0.00 0.00 0.00 0.00 0.00 0.00 0.00 0.00 0.00 0.00 0.00 0.01 0.00 0.02 0.02 0.03 0.03 0.04 0.04 0.03 0.03 0.02 0.02 0.02 0.01 0.01 0.01 0.01 0.00 0.00 0.01 0.01 0.01 0.02 0.04 0.07 0.06 0.09 0.19 0.14 0.12 0.15 0.26 0.34 0.42 0.90 0.49 0.49 0.36 0.52 0.74 0.58 0.28 0.36 0.30 0.53 0.52 0.61 0.67 0.82 0.85
0.00 0.00 0.00 0.00 0.00 0.00 0.00 0.00 0.00 0.00 0.00 0.00 0.00 0.00 0.00 0.00 0.00 0.00 0.00 0.00 0.00 0.00 0.00 0.00 0.00 0.00 0.00 0.00 0.00 0.00 0.00 0.00 0.00 0.00 0.01 0.00 0.00 0.00 0.01 0.01 0.02 0.03 0.03 0.04 0.03 0.03 0.03 0.02 0.02 0.01 0.01 0.01 0.01 0.00 0.00 0.00 0.01 0.01 0.02 0.03 0.05 0.08 0.10 0.12 0.16 0.12 0.23 0.12 0.11 0.21 0.33 0.26 0.33 0.35 0.41 0.37 0.41 0.38 0.39 0.31 0.29 0.32 0.53 0.62 0.72 0.67
0.00 0.00 0.00 0.00 0.00 0.00 0.00 0.00 0.00 0.00 0.00 0.00 0.00 0.00 0.00 0.00 0.00 0.00 0.00 0.00 0.00 0.00 0.00 0.00 0.00 0.00 0.00 0.00 0.00 0.00 0.00 0.00 0.00 0.00 0.00 0.01 0.01 0.01 0.02 0.01 0.02 0.02 0.03 0.03 0.03 0.03 0.03 0.02 0.02 0.01 0.01 0.00 0.00 0.00 0.00 0.01 0.01 0.02 0.02 0.03 0.05 0.08 0.10 0.17 0.19 0.18 0.16 0.12 0.22 0.15 0.19 0.25 0.29 0.31 0.32 0.35 0.52 0.52 0.53 0.35 0.33 0.83 0.25 0.31 0.40 0.53
0.00 0.00 0.00 0.00 0.00 0.00 0.00 0.00 0.00 0.00 0.00 0.00 0.00 0.00 0.00 0.00 0.00 0.00 0.00 0.00 0.00 0.00 0.00 0.00 0.00 0.00 0.00 0.00 0.00 0.00 0.00 0.00 0.00 0.01 0.01 0.02 0.02 0.02 0.02 0.02 0.02 0.03 0.03 0.03 0.03 0.03 0.02 0.02 0.01 0.01 0.01 0.01 0.01 0.01 0.01 0.02 0.03 0.03 0.03 0.03 0.07 0.11 0.10 0.09 0.11 0.19 0.25 0.21 0.21 0.20 0.17 0.19 0.20 0.22 0.28 0.42 0.53 0.33 0.46 0.81 0.53 0.40 0.52 0.34 0.31 0.37
0.00 0.00 0.00 0.00 0.00 0.00 0.00 0.00 0.00 0.00 0.00 0.00 0.00 0.00 0.00 0.00 0.00 0.00 0.00 0.00 0.00 0.00 0.00 0.00 0.00 0.00 0.00 0.00 0.00 0.00 0.00 0.02 0.01 0.01 0.04 0.04 0.04 0.03 0.02 0.02 0.03 0.03 0.03 0.03 0.03 0.02 0.02 0.02 0.01 0.01 0.01 0.02 0.03 0.03 0.04 0.04 0.04 0.04 0.04 0.03 0.03 0.09 0.12 0.11 0.12 0.13 0.16 0.18 0.22 0.20 0.23 0.23 0.23 0.19 0.17 0.25 0.24 0.35 0.33 0.41 0.31 0.47 0.42 0.42 0.68 0.58
0.00 0.00 0.00 0.00 0.00 0.00 0.00 0.00 0.00 0.00 0.00 0.00 0.00 0.00 0.00 0.00 0.00 0.00 0.00 0.00 0.00 0.00 0.00 0.00 0.00 0.00 0.00 0.01 0.00 0.00 0.01 0.03 0.03 0.02 0.02 0.02 0.03 0.03 0.03 0.02 0.03 0.03 0.03 0.03 0.03 0.02 0.02 0.02 0.03 0.04 0.05 0.05 0.06 0.06 0.06 0.05 0.05 0.04 0.03 0.03 0.03 0.02 0.07 0.12 0.12 0.11 0.13 0.20 0.24 0.23 0.18 0.17 0.15 0.26 0.15 0.39 0.34 0.20 0.21 0.21 0.24 0.21 0.26 0.35 0.38 0.48
0.00 0.00 0.00 0.00 0.00 0.00 0.00 0.00 0.00 0.00 0.00 0.00 0.00 0.00 0.00 0.00 0.00 0.00 0.00 0.00 0.00 0.00 0.00 0.00 0.00 0.00 0.00 0.01 0.01 0.02 0.02 0.05 0.03 0.03 0.02 0.02 0.03 0.03 0.03 0.03 0.03 0.03 0.02 0.02 0.03 0.03 0.04 0.05 0.06 0.06 0.07 0.07 0.07 0.06 0.05 0.05 0.04 0.03 0.03 0.02 0.02 0.01 0.01 0.03 0.08 0.17 0.12 0.13 0.16 0.22 0.25 0.22 0.15 0.17 0.15 0.14 0.11 0.14 0.13 0.13 0.17 0.23 0.28 0.27 0.24 0.26
0.00 0.00 0.00 0.00 0.00 0.00 0.00 0.00 0.00 0.00 0.00 0.00 0.00 0.00 0.00 0.00 0.00 0.00 0.00 0.00 0.00 0.00 0.00 0.00 0.00 0.00 0.00 0.02 0.02 0.02 0.06 0.04 0.05 0.07 0.04 0.03 0.02 0.03 0.03 0.02 0.02 0.02 0.02 0.03 0.05 0.06 0.07 0.07 0.08 0.08 0.09 0.09 0.07 0.06 0.05 0.04 0.03 0.03 0.03 0.02 0.01 0.02 0.02 0.02 0.03 0.06 0.09 0.09 0.13 0.13 0.15 0.18 0.17 0.14 0.15 0.15 0.16 0.15 0.18 0.12 0.11 0.11 0.10 0.19 0.14 0.46
0.00 0.00 0.00 0.00 0.00 0.00 0.00 0.00 0.00 0.00 0.00 0.00 0.00 0.00 0.00 0.00 0.00 0.00 0.00 0.00 0.00 0.00 0.00 0.00 0.00 0.00 0.01 0.01 0.03 0.06 0.11 0.06 0.06 0.06 0.05 0.04 0.03 0.03 0.04 0.03 0.03 0.04 0.05 0.06 0.07 0.08 0.09 0.10 0.10 0.10 0.10 0.09 0.08 0.06 0.05 0.04 0.04 0.03 0.02 0.02 0.01 0.01 0.04 0.03 0.05 0.03 0.04 0.06 0.07 0.09 0.09 0.11 0.14 0.16 0.17 0.16 0.17 0.26 0.17 0.21 0.16 0.13 0.13 0.11 0.16 0.22
0.00 0.00 0.00 0.00 0.00 0.00 0.00 0.00 0.00 0.00 0.00 0.00 0.00 0.00 0.00 0.00 0.00 0.00 0.00 0.00 0.00 0.00 0.00 0.00 0.00 0.00 0.03 0.04 0.05 0.06 0.06 0.10 0.07 0.06 0.07 0.07 0.06 0.06 0.06 0.06 0.07 0.08 0.08 0.10 0.11 0.12 0.13 0.13 0.13 0.13 0.12 0.10 0.08 0.06 0.05 0.04 0.03 0.02 0.01 0.01 0.01 0.02 0.01 0.04 0.03 0.03 0.03 0.03 0.04 0.06 0.07 0.08 0.08 0.10 0.12 0.14 0.17 0.19 0.21 0.17 0.24 0.17 0.12 0.13 0.33 0.11
0.00 0.00 0.00 0.00 0.00 0.00 0.00 0.00 0.00 0.00 0.00 0.00 0.00 0.00 0.00 0.00 0.00 0.01 0.00 0.00 0.00 0.00 0.00 0.00 0.00 0.00 0.04 0.05 0.04 0.05 0.07 0.08 0.11 0.09 0.09 0.09 0.11 0.10 0.12 0.12 0.13 0.13 0.14 0.15 0.16 0.17 0.17 0.17 0.16 0.14 0.12 0.10 0.08 0.06 0.04 0.03 0.03 0.02 0.01 0.01 0.01 0.01 0.02 0.03 0.02 0.02 0.02 0.03 0.03 0.04 0.05 0.06 0.06 0.08 0.09 0.10 0.12 0.12 0.14 0.15 0.16 0.16 0.12 0.20 0.10 0.15
0.00 0.00 0.00 0.00 0.00 0.00 0.00 0.00 0.00 0.00 0.00 0.00 0.00 0.00 0.00 0.00 0.00 0.01 0.00 0.01 0.01 0.01 0.01 0.00 0.00 0.03 0.02 0.10 0.04 0.06 0.09 0.05 0.08 0.13 0.12 0.12 0.14 0.15 0.15 0.15 0.16 0.17 0.18 0.20 0.20 0.21 0.19 0.17 0.15 0.13 0.11 0.09 0.07 0.05 0.03 0.02 0.02 0.02 0.07 0.06 0.01 0.01 0.02 0.03 0.02 0.01 0.01 0.02 0.02 0.02 0.02 0.02 0.03 0.03 0.04 0.06 0.10 0.11 0.13 0.13 0.13 0.12 0.11 0.12 0.08 0.15
0.00 0.00 0.00 0.00 0.00 0.00 0.00 0.00 0.00 0.00 0.00 0.00 0.00 0.00 0.00 0.00 0.00 0.00 0.00 0.00 0.01 0.02 0.02 0.03 0.02 0.04 0.05 0.05 0.07 0.26 0.07 0.12 0.11 0.16 0.20 0.18 0.16 0.17 0.16 0.18 0.18 0.19 0.21 0.22 0.21 0.19 0.16 0.14 0.13 0.11 0.09 0.07 0.05 0.03 0.02 0.02 0.02 0.03 0.04 0.01 0.01 0.02 0.03 0.02 0.01 0.01 0.01 0.02 0.02 0.02 0.02 0.02 0.03 0.03 0.04 0.05 0.05 0.06 0.07 0.07 0.12 0.10 0.12 0.12 0.07 0.07
0.00 0.00 0.00 0.00 0.00 0.00 0.00 0.00 0.00 0.00 0.00 0.00 0.00 0.00 0.00 0.00 0.00 0.00 0.01 0.01 0.01 0.02 0.03 0.02 0.05 0.06 0.06 0.09 0.09 0.09 0.10 0.14 0.14 0.14 0.18 0.17 0.16 0.17 0.17 0.19 0.21 0.22 0.22 0.22 0.19 0.16 0.14 0.12 0.10 0.09 0.06 0.04 0.03 0.02 0.03 0.03 0.02 0.01 0.01 0.01 0.02 0.03 0.01 0.01 0.01 0.01 0.02 0.02 0.02 0.03 0.02 0.02 0.03 0.06 0.09 0.06 0.06 0.04 0.06 0.06 0.06 0.04 0.07 0.04 0.04 0.05
0.00 0.00 0.00 0.00 0.00 0.00 0.00 0.00 0.00 0.00 0.00 0.00 0.00 0.00 0.00 0.00 0.00 0.01 0.03 0.03 0.04 0.09 0.09 0.03 0.03 0.05 0.08 0.10 0.17 0.16 0.15 0.17 0.15 0.20 0.19 0.14 0.14 0.17 0.19 0.22 0.23 0.23 0.21 0.18 0.16 0.14 0.12 0.10 0.08 0.05 0.03 0.02 0.01 0.02 0.03 0.02 0.01 0.00 0.01 0.01 0.02 0.02 0.02 0.02 0.02 0.02 0.02 0.05 0.03 0.02 0.03 0.06 0.07 0.07 0.05 0.03 0.15 0.12 0.05 0.03 0.06 0.03 0.04 0.06 0.03 0.03
0.00 0.00 0.00 0.00 0.00 0.00 0.00 0.00 0.00 0.00 0.00 0.00 0.00 0.00 0.00 0.00 0.01 0.01 0.02 0.09 0.12 0.18 0.14 0.09 0.06 0.06 0.10 0.16 0.18 0.23 0.30 0.34 0.28 0.23 0.18 0.17 0.18 0.19 0.20 0.23 0.22 0.22 0.19 0.16 0.14 0.11 0.09 0.06 0.03 0.02 0.01 0.01 0.02 0.03 0.03 0.01 0.01 0.01 0.01 0.02 0.02 0.02 0.02 0.02 0.02 0.02 0.03 0.02 0.03 0.04 0.06 0.05 0.03 0.03 0.09 0.11 0.15 0.07 0.10 0.08 0.05 0.03 0.05 0.03 0.04 0.04
0.00 0.00 0.00 0.00 0.00 0.00 0.00 0.00 0.00 0.00 0.00 0.00 0.00 0.00 0.00 0.00 0.01 0.01 0.02 0.02 0.09 0.18 0.26 0.25 0.12 0.11 0.10 0.16 0.21 0.26 0.29 0.23 0.21 0.21 0.20 0.19 0.19 0.19 0.21 0.22 0.21 0.18 0.18 0.14 0.11 0.07 0.04 0.02 0.01 0.00 0.01 0.01 0.03 0.03 0.01 0.01 0.01 0.01 0.02 0.03 0.02 0.02 0.01 0.02 0.02 0.03 0.06 0.04 0.05 0.04 0.03 0.03 0.09 0.12 0.12 0.07 0.03 0.07 0.06 0.05 0.04 0.04 0.04 0.05 0.04 0.05
0.00 0.00 0.00 0.00 0.00 0.00 0.00 0.00 0.00 0.00 0.00 0.00 0.00 0.00 0.00 0.00 0.01 0.01 0.01 0.06 0.07 0.18 0.21 0.24 0.25 0.22 0.16 0.17 0.14 0.30 0.30 0.25 0.21 0.21 0.20 0.20 0.19 0.19 0.19 0.19 0.16 0.12 0.10 0.07 0.03 0.02 0.01 0.01 0.01 0.01 0.01 0.03 0.03 0.01 0.01 0.01 0.01 0.03 0.03 0.02 0.02 0.01 0.02 0.03 0.06 0.03 0.02 0.03 0.03 0.04 0.05 0.07 0.20 0.08 0.09 0.07 0.03 0.05 0.09 0.05 0.04 0.04 0.05 0.06 0.07 0.09
0.00 0.00 0.00 0.00 0.00 0.00 0.00 0.00 0.00 0.00 0.00 0.00 0.00 0.00 0.00 0.01 0.03 0.05 0.08 0.05 0.05 0.09 0.16 0.20 0.27 0.20 0.19 0.10 0.16 0.15 0.18 0.19 0.20 0.22 0.23 0.21 0.18 0.14 0.12 0.09 0.06 0.08 0.03 0.02 0.01 0.01 0.01 0.01 0.01 0.02 0.03 0.03 0.01 0.01 0.01 0.01 0.02 0.04 0.03 0.02 0.01 0.02 0.03 0.03 0.05 0.04 0.03 0.02 0.02 0.04 0.07 0.06 0.13 0.03 0.11 0.04 0.05 0.07 0.05 0.04 0.04 0.05 0.09 0.08 0.09 0.09
0.00 0.00 0.00 0.00 0.00 0.00 0.00 0.00 0.00 0.00 0.00 0.00 0.00 0.00 0.00 0.01 0.02 0.04 0.12 0.11 0.08 0.10 0.05 0.07 0.20 0.21 0.20 0.26 0.16 0.17 0.20 0.21 0.22 0.21 0.18 0.13 0.09 0.06 0.05 0.04 0.03 0.02 0.01 0.01 0.01 0.01 0.01 0.01 0.01 0.03 0.02 0.02 0.01 0.01 0.01 0.01 0.02 0.03 0.02 0.02 0.03 0.04 0.03 0.03 0.03 0.02 0.02 0.03 0.05 0.04 0.07 0.09 0.05 0.08 0.06 0.03 0.04 0.06 0.05 0.04 0.07 0.09 0.16 0.14 0.13 0.11
0.00 0.00 0.00 0.00 0.00 0.00 0.00 0.00 0.00 0.00 0.00 0.00 0.00 0.00 0.01 0.01 0.01 0.02 0.06 0.05 0.08 0.06 0.08 0.13 0.21 0.30 0.19 0.24 0.22 0.19 0.21 0.19 0.13 0.09 0.08 0.08 0.09 0.03 0.01 0.01 0.02 0.01 0.01 0.01 0.01 0.01 0.01 0.01 0.02 0.03 0.02 0.02 0.01 0.01 0.01 0.02 0.03 0.03 0.03 0.04 0.04 0.03 0.02 0.02 0.02 0.02 0.02 0.03 0.03 0.03 0.02 0.03 0.03 0.04 0.05 0.04 0.04 0.05 0.07 0.10 0.12 0.14 0.14 0.13 0.12 0.12
0.00 0.00 0.00 0.00 0.00 0.00 0.00 0.00 0.00 0.00 0.00 0.00 0.00 0.02 0.03 0.00 0.00 0.00 0.00 0.01 0.06 0.07 0.10 0.22 0.31 0.29 0.26 0.21 0.24 0.15 0.10 0.07 0.09 0.06 0.05 0.04 0.02 0.01 0.01 0.01 0.02 0.02 0.01 0.01 0.01 0.01 0.02 0.03 0.04 0.03 0.02 0.02 0.02 0.02 0.03 0.04 0.04 0.06 0.05 0.03 0.03 0.03 0.02 0.02 0.02 0.02 0.03 0.03 0.03 0.05 0.03 0.05 0.05 0.07 0.04 0.04 0.05 0.08 0.10 0.12 0.14 0.14 0.14 0.13 0.11 0.09
0.00 0.00 0.00 0.00 0.00 0.00 0.00 0.00 0.01 0.01 0.01 0.01 0.01 0.03 0.00 0.00 0.01 0.00 0.01 0.03 0.09 0.12 0.13 0.27 0.33 0.30 0.26 0.22 0.14 0.08 0.08 0.07 0.05 0.04 0.02 0.01 0.01 0.01 0.01 0.01 0.01 0.01 0.01 0.01 0.02 0.03 0.04 0.04 0.02 0.03 0.03 0.03 0.02 0.03 0.03 0.05 0.06 0.05 0.04 0.03 0.02 0.02 0.02 0.02 0.03 0.03 0.03 0.03 0.03 0.06 0.16 0.16 0.10 0.07 0.04 0.05 0.08 0.11 0.14 0.15 0.15 0.15 0.12 0.09 0.08 0.07
0.00 0.00 0.00 0.00 0.00 0.00 0.00 0.01 0.02 0.02 0.02 0.02 0.02 0.01 0.01 0.01 0.01 0.01 0.02 0.05 0.21 0.22 0.19 0.26 0.24 0.25 0.14 0.10 0.10 0.10 0.07 0.06 0.03 0.02 0.01 0.02 0.01 0.01 0.01 0.02 0.01 0.01 0.01 0.02 0.04 0.05 0.04 0.03 0.03 0.04 0.03 0.03 0.03 0.03 0.04 0.05 0.04 0.03 0.03 0.03 0.02 0.02 0.02 0.03 0.03 0.10 0.04 0.04 0.06 0.21 0.09 0.09 0.04 0.05 0.07 0.10 0.13 0.15 0.15 0.15 0.13 0.10 0.09 0.07 0.08 0.08
0.00 0.00 0.00 0.00 0.00 0.00 0.00 0.00 0.01 0.02 0.02 0.01 0.01 0.01 0.00 0.01 0.01 0.02 0.04 0.11 0.14 0.24 0.24 0.21 0.15 0.11 0.08 0.07 0.07 0.06 0.05 0.04 0.03 0.02 0.02 0.02 0.02 0.03 0.02 0.02 0.11 0.02 0.02 0.03 0.05 0.05 0.04 0.03 0.04 0.05 0.05 0.04 0.04 0.06 0.06 0.04 0.03 0.03 0.03 0.02 0.02 0.02 0.05 0.03 0.08 0.06 0.13 0.09 0.09 0.08 0.08 0.05 0.06 0.08 0.12 0.14 0.15 0.16 0.15 0.13 0.11 0.10 0.10 0.10 0.09 0.09
0.00 0.00 0.00 0.00 0.00 0.00 0.00 0.00 0.01 0.00 0.01 0.02 0.01 0.01 0.01 0.01 0.01 0.03 0.05 0.07 0.11 0.19 0.23 0.12 0.07 0.06 0.05 0.08 0.09 0.07 0.05 0.05 0.04 0.03 0.04 0.04 0.04 0.03 0.03 0.03 0.03 0.04 0.05 0.06 0.05 0.09 0.04 0.04 0.05 0.05 0.06 0.05 0.06 0.07 0.05 0.04 0.04 0.03 0.03 0.02 0.02 0.10 0.16 0.06 0.08 0.08 0.07 0.08 0.06 0.06 0.06 0.08 0.10 0.13 0.15 0.16 0.16 0.14 0.13 0.13 0.14 0.14 0.13 0.12 0.12 0.11
0.00 0.00 0.00 0.00 0.00 0.00 0.00 0.00 0.00 0.00 0.01 0.02 0.01 0.00 0.01 0.01 0.02 0.04 0.04 0.04 0.05 0.07 0.06 0.06 0.05 0.04 0.03 0.11 0.06 0.04 0.04 0.04 0.03 0.03 0.03 0.04 0.05 0.05 0.05 0.06 0.05 0.06 0.07 0.07 0.05 0.06 0.04 0.05 0.06 0.06 0.05 0.07 0.09 0.08 0.06 0.06 0.07 0.05 0.04 0.03 0.06 0.04 0.03 0.06 0.05 0.05 0.08 0.06 0.07 0.09 0.11 0.14 0.17 0.18 0.16 0.13 0.12 0.12 0.14 0.16 0.15 0.16 0.17 0.17 0.15 0.14
0.00 0.00 0.02 0.00 0.01 0.00 0.01 0.01 0.00 0.01 0.02 0.03 0.00 0.00 0.01 0.02 0.02 0.02 0.03 0.03 0.03 0.04 0.03 0.03 0.03 0.04 0.07 0.04 0.03 0.02 0.03 0.02 0.02 0.03 0.04 0.04 0.05 0.07 0.08 0.08 0.07 0.08 0.07 0.07 0.07 0.07 0.05 0.06 0.06 0.06 0.09 0.10 0.08 0.08 0.10 0.07 0.05 0.03 0.03 0.03 0.08 0.09 0.03 0.04 0.06 0.06 0.07 0.09 0.11 0.14 0.17 0.19 0.18 0.13 0.11 0.11 0.12 0.14 0.15 0.16 0.17 0.18 0.17 0.17 0.17 0.16
0.00 0.00 0.00 0.01 0.02 0.00 0.00 0.01 0.01 0.00 0.01 0.00 0.01 0.01 0.01 0.01 0.02 0.03 0.03 0.03 0.05 0.07 0.07 0.06 0.08 0.12 0.09 0.04 0.04 0.02 0.02 0.02 0.03 0.03 0.03 0.04 0.06 0.09 0.11 0.10 0.09 0.08 0.08 0.09 0.08 0.06 0.06 0.07 0.07 0.09 0.10 0.10 0.09 0.10 0.07 0.05 0.04 0.04 0.04 0.04 0.09 0.04 0.05 0.08 0.08 0.09 0.11 0.15 0.18 0.19 0.17 0.14 0.11 0.11 0.11 0.13 0.16 0.16 0.16 0.16 0.16 0.17 0.17 0.17 0.16 0.16
0.00 0.00 0.01 0.02 0.02 0.01 0.00 0.01 0.01 0.00 0.00 0.01 0.04 0.03 0.02 0.01 0.02 0.02 0.02 0.03 0.04 0.05 0.10 0.16 0.17 0.14 0.11 0.09 0.08 0.05 0.04 0.05 0.06 0.04 0.03 0.04 0.07 0.10 0.10 0.09 0.09 0.08 0.10 0.10 0.08 0.09 0.09 0.10 0.09 0.11 0.09 0.09 0.08 0.15 0.08 0.05 0.04 0.04 0.04 0.05 0.06 0.05 0.07 0.08 0.11 0.15 0.18 0.18 0.16 0.13 0.11 0.10 0.11 0.12 0.14 0.16 0.16 0.17 0.17 0.17 0.17 0.17 0.18 0.19 0.19 0.20
0.00 0.00 0.01 0.05 0.02 0.01 0.01 0.01 0.02 0.01 0.01 0.04 0.05 0.03 0.04 0.05 0.08 0.11 0.10 0.07 0.09 0.09 0.13 0.17 0.19 0.16 0.14 0.11 0.10 0.10 0.08 0.10 0.07 0.03 0.02 0.10 0.16 0.13 0.12 0.11 0.11 0.13 0.12 0.12 0.11 0.11 0.09 0.09 0.11 0.12 0.11 0.11 0.12 0.13 0.04 0.04 0.04 0.04 0.05 0.04 0.06 0.08 0.09 0.12 0.16 0.17 0.16 0.13 0.12 0.11 0.11 0.11 0.13 0.16 0.17 0.17 0.17 0.20 0.21 0.20 0.20 0.20 0.21 0.22 0.22 0.23
0.00 0.00 0.01 0.00 0.02 0.02 0.02 0.02 0.02 0.01 0.06 0.05 0.04 0.04 0.03 0.04 0.06 0.10 0.11 0.12 0.12 0.09 0.10 0.12 0.14 0.13 0.11 0.10 0.09 0.09 0.08 0.05 0.05 0.02 0.03 0.10 0.13 0.12 0.13 0.13 0.16 0.18 0.17 0.15 0.14 0.12 0.11 0.13 0.13 0.11 0.10 0.16 0.10 0.11 0.08 0.05 0.04 0.06 0.06 0.08 0.09 0.11 0.14 0.17 0.16 0.14 0.12 0.12 0.12 0.12 0.12 0.14 0.17 0.19 0.19 0.19 0.19 0.19 0.19 0.20 0.22 0.22 0.23 0.26 0.28 0.29
0.00 0.01 0.01 0.02 0.06 0.04 0.04 0.03 0.04 0.08 0.03 0.03 0.05 0.05 0.03 0.03 0.03 0.05 0.09 0.12 0.08 0.09 0.10 0.16 0.14 0.10 0.08 0.06 0.06 0.06 0.06 0.05 0.03 0.02 0.04 0.06 0.05 0.07 0.12 0.15 0.15 0.16 0.15 0.16 0.13 0.12 0.12 0.16 0.15 0.15 0.14 0.08 0.13 0.09 0.06 0.06 0.07 0.08 0.10 0.12 0.14 0.17 0.17 0.15 0.13 0.12 0.13 0.15 0.13 0.13 0.16 0.19 0.22 0.21 0.19 0.18 0.18 0.21 0.22 0.21 0.22 0.24 0.24 0.27 0.27 0.29
0.00 0.00 0.03 0.02 0.05 0.05 0.03 0.04 0.03 0.06 0.05 0.07 0.13 0.26 0.09 0.14 0.15 0.14 0.30 0.16 0.12 0.15 0.21 0.17 0.12 0.08 0.07 0.06 0.07 0.06 0.05 0.04 0.05 0.03 0.04 0.04 0.05 0.08 0.08 0.10 0.10 0.11 0.10 0.09 0.08 0.11 0.13 0.12 0.13 0.11 0.08 0.12 0.10 0.06 0.06 0.06 0.08 0.12 0.14 0.15 0.16 0.15 0.12 0.11 0.13 0.15 0.15 0.15 0.14 0.19 0.21 0.20 0.22 0.21 0.20 0.21 0.23 0.23 0.24 0.26 0.26 0.27 0.26 0.33 0.32 0.33
0.00 0.00 0.01 0.03 0.05 0.12 0.04 0.05 0.07 0.06 0.10 0.14 0.13 0.09 0.07 0.05 0.06 0.07 0.22 0.25 0.24 0.20 0.12 0.09 0.09 0.08 0.09 0.10 0.09 0.08 0.07 0.14 0.14 0.08 0.05 0.04 0.05 0.05 0.04 0.06 0.06 0.07 0.07 0.07 0.08 0.13 0.15 0.12 0.10 0.06 0.07 0.09 0.06 0.06 0.06 0.08 0.11 0.13 0.13 0.12 0.12 0.12 0.12 0.14 0.16 0.15 0.15 0.17 0.19 0.20 0.21 0.21 0.21 0.24 0.25 0.25 0.26 0.27 0.28 0.29 0.29 0.30 0.30 0.35 0.33 0.29
0.00 0.00 0.00 0.01 0.01 0.02 0.03 0.08 0.09 0.12 0.17 0.24 0.21 0.12 0.08 0.05 0.03 0.04 0.14 0.19 0.33 0.09 0.05 0.05 0.07 0.08 0.10 0.12 0.11 0.12 0.20 0.33 0.26 0.17 0.08 0.06 0.05 0.05 0.06 0.06 0.05 0.05 0.06 0.07 0.15 0.15 0.13 0.11 0.07 0.05 0.08 0.07 0.09 0.08 0.08 0.11 0.11 0.11 0.12 0.12 0.13 0.14 0.17 0.19 0.18 0.19 0.20 0.20 0.19 0.21 0.20 0.21 0.24 0.26 0.27 0.28 0.26 0.28 0.32 0.33 0.35 0.31 0.29 0.29 0.29 0.26
0.00 0.00 0.00 0.00 0.01 0.01 0.06 0.10 0.11 0.11 0.20 0.25 0.18 0.12 0.06 0.04 0.02 0.05 0.19 0.25 0.15 0.08 0.06 0.07 0.08 0.10 0.12 0.10 0.13 0.20 0.35 0.48 0.39 0.20 0.10 0.06 0.06 0.07 0.10 0.07 0.06 0.07 0.09 0.14 0.13 0.12 0.09 0.08 0.09 0.14 0.14 0.12 0.12 0.11 0.11 0.10 0.10 0.12 0.13 0.14 0.15 0.20 0.22 0.21 0.22 0.18 0.18 0.19 0.21 0.20 0.20 0.22 0.24 0.26 0.27 0.28 0.28 0.28 0.31 0.31 0.30 0.28 0.27 0.24 0.24 0.25
0.02 0.02 0.01 0.03 0.03 0.04 0.05 0.09 0.07 0.10 0.21 0.20 0.12 0.07 0.05 0.04 0.04 0.18 0.34 0.38 0.15 0.11 0.09 0.08 0.09 0.09 0.12 0.15 0.23 0.34 0.28 0.29 0.25 0.14 0.06 0.06 0.08 0.06 0.04 0.06 0.09 0.11 0.13 0.13 0.12 0.09 0.10 0.10 0.16 0.19 0.12 0.13 0.13 0.12 0.10 0.10 0.13 0.15 0.16 0.19 0.24 0.24 0.23 0.20 0.18 0.19 0.21 0.21 0.20 0.19 0.19 0.20 0.23 0.28 0.28 0.29 0.31 0.31 0.29 0.27 0.28 0.26 0.25 0.25 0.24 0.25
0.05 0.05 0.04 0.06 0.07 0.11 0.09 0.11 0.09 0.08 0.44 0.17 0.09 0.06 0.06 0.11 0.24 0.52 0.35 0.15 0.14 0.11 0.07 0.09 0.13 0.12 0.14 0.21 0.23 0.24 0.18 0.08 0.06 0.06 0.06 0.07 0.08 0.06 0.07 0.09 0.09 0.10 0.12 0.11 0.12 0.12 0.11 0.16 0.18 0.12 0.12 0.14 0.13 0.13 0.12 0.13 0.18 0.19 0.23 0.30 0.28 0.23 0.21 0.20 0.21 0.24 0.24 0.21 0.19 0.19 0.20 0.22 0.26 0.30 0.32 0.28 0.27 0.28 0.28 0.26 0.26 0.26 0.27 0.28 0.30 0.29
0.09 0.08 0.09 0.09 0.15 0.12 0.12 0.15 0.16 0.23 0.30 0.20 0.17 0.14 0.13 0.26 0.48 0.40 0.27 0.19 0.11 0.09 0.10 0.14 0.15 0.13 0.20 0.21 0.15 0.14 0.11 0.08 0.07 0.08 0.09 0.07 0.08 0.09 0.09 0.08 0.11 0.12 0.11 0.11 0.10 0.11 0.18 0.22 0.15 0.15 0.15 0.14 0.13 0.13 0.14 0.18 0.23 0.29 0.34 0.30 0.25 0.22 0.22 0.23 0.27 0.27 0.22 0.20 0.20 0.21 0.23 0.27 0.30 0.32 0.30 0.27 0.26 0.29 0.29 0.27 0.26 0.25 0.27 0.30 0.31 0.30
0.08 0.06 0.13 0.10 0.23 0.35 0.22 0.23 0.32 0.52 0.38 0.21 0.16 0.31 0.28 0.36 0.34 0.24 0.19 0.20 0.14 0.12 0.15 0.16 0.14 0.17 0.15 0.18 0.15 0.13 0.12 0.14 0.10 0.08 0.08 0.09 0.08 0.08 0.09 0.10 0.10 0.12 0.11 0.12 0.13 0.13 0.19 0.16 0.16 0.15 0.15 0.14 0.13 0.16 0.18 0.24 0.34 0.37 0.31 0.27 0.24 0.25 0.28 0.31 0.28 0.23 0.22 0.21 0.22 0.24 0.25 0.27 0.28 0.28 0.29 0.31 0.31 0.29 0.29 0.27 0.26 0.25 0.25 0.28 0.31 0.31
0.26 0.18 0.22 0.32 0.21 0.28 0.28 0.19 0.24 0.22 0.13 0.08 0.07 0.12 0.25 0.19 0.11 0.09 0.10 0.12 0.14 0.13 0.11 0.19 0.19 0.14 0.13 0.17 0.16 0.18 0.21 0.15 0.14 0.11 0.15 0.12 0.12 0.12 0.12 0.11 0.13 0.14 0.13 0.13 0.14 0.13 0.14 0.17 0.14 0.15 0.15 0.13 0.15 0.17 0.22 0.30 0.39 0.35 0.33 0.28 0.27 0.33 0.36 0.30 0.25 0.23 0.22 0.23 0.23 0.23 0.24 0.24 0.25 0.26 0.26 0.26 0.27 0.30 0.27 0.25 0.25 0.26 0.23 0.26 0.27 0.29
0.12 0.09 0.07 0.11 0.12 0.07 0.04 0.12 0.15 0.10 0.08 0.06 0.04 0.06 0.08 0.06 0.04 0.03 0.05 0.09 0.10 0.09 0.14 0.21 0.18 0.18 0.18 0.17 0.22 0.18 0.18 0.16 0.15 0.15 0.14 0.13 0.14 0.13 0.11 0.14 0.13 0.12 0.13 0.14 0.15 0.16 0.15 0.13 0.14 0.16 0.17 0.17 0.17 0.20 0.27 0.32 0.33 0.38 0.36 0.31 0.34 0.34 0.29 0.26 0.25 0.24 0.23 0.22 0.22 0.21 0.21 0.21 0.21 0.22 0.24 0.23 0.24 0.25 0.24 0.25 0.24 0.25 0.24 0.27 0.28 0.28
0.05 0.07 0.07 0.10 0.09 0.09 0.13 0.05 0.06 0.05 0.03 0.02 0.02 0.02 0.01 0.02 0.01 0.01 0.03 0.06 0.06 0.11 0.12 0.15 0.17 0.16 0.18 0.17 0.22 0.26 0.17 0.17 0.17 0.16 0.16 0.15 0.14 0.14 0.17 0.17 0.15 0.15 0.18 0.19 0.18 0.15 0.15 0.16 0.19 0.22 0.22 0.22 0.20 0.25 0.30 0.28 0.30 0.32 0.32 0.34 0.32 0.28 0.26 0.26 0.25 0.23 0.20 0.20 0.20 0.20 0.20 0.21 0.22 0.22 0.22 0.21 0.20 0.21 0.22 0.21 0.21 0.23 0.25 0.28 0.32 0.32
0.11 0.07 0.08 0.09 0.09 0.07 0.08 0.04 0.04 0.03 0.03 0.02 0.02 0.01 0.01 0.01 0.02 0.03 0.08 0.07 0.15 0.19 0.16 0.17 0.14 0.14 0.11 0.12 0.15 0.19 0.20 0.19 0.19 0.20 0.20 0.19 0.19 0.21 0.19 0.19 0.20 0.20 0.21 0.18 0.14 0.15 0.17 0.20 0.26 0.27 0.26 0.26 0.26 0.28 0.28 0.28 0.29 0.29 0.31 0.31 0.28 0.27 0.27 0.26 0.23 0.22 0.20 0.18 0.19 0.20 0.20 0.22 0.21 0.20 0.19 0.19 0.20 0.21 0.19 0.16 0.17 0.22 0.25 0.32 0.41 0.49
0.17 0.09 0.20 0.14 0.14 0.08 0.03 0.04 0.06 0.09 0.08 0.05 0.02 0.01 0.01 0.02 0.06 0.05 0.04 0.09 0.13 0.12 0.13 0.11 0.12 0.13 0.12 0.16 0.13 0.18 0.20 0.19 0.18 0.24 0.22 0.22 0.24 0.21 0.22 0.23 0.24 0.25 0.20 0.16 0.17 0.19 0.23 0.26 0.29 0.28 0.28 0.30 0.28 0.26 0.27 0.27 0.27 0.29 0.30 0.29 0.27 0.28 0.28 0.26 0.22 0.20 0.18 0.17 0.19 0.19 0.19 0.22 0.20 0.19 0.18 0.17 0.19 0.22 0.23 0.22 0.21 0.26 0.26 0.22 0.31 0.53
0.11 0.15 0.16 0.14 0.19 0.16 0.15 0.17 0.20 0.38 0.30 0.12 0.04 0.02 0.02 0.03 0.08 0.06 0.05 0.11 0.10 0.12 0.10 0.09 0.07 0.07 0.11 0.11 0.13 0.16 0.21 0.21 0.18 0.21 0.25 0.26 0.23 0.22 0.24 0.26 0.28 0.22 0.19 0.18 0.21 0.22 0.23 0.25 0.26 0.28 0.30 0.29 0.25 0.27 0.29 0.27 0.28 0.28 0.28 0.27 0.27 0.27 0.29 0.27 0.26 0.23 0.19 0.18 0.19 0.18 0.20 0.20 0.17 0.17 0.17 0.18 0.18 0.17 0.19 0.21 0.26 0.30 0.38 0.37 0.30 0.37
0.25 0.23 0.28 0.35 0.53 0.47 0.23 0.19 0.17 0.23 0.18 0.08 0.04 0.03 0.04 0.05 0.04 0.07 0.12 0.12 0.10 0.09 0.09 0.12 0.12 0.11 0.11 0.11 0.12 0.15 0.18 0.21 0.21 0.22 0.26 0.26 0.23 0.22 0.26 0.29 0.25 0.23 0.24 0.25 0.27 0.26 0.25 0.25 0.24 0.28 0.28 0.27 0.27 0.29 0.27 0.27 0.26 0.27 0.26 0.25 0.26 0.27 0.28 0.28 0.31 0.27 0.22 0.20 0.20 0.19 0.22 0.20 0.18 0.17 0.18 0.18 0.19 0.18 0.18 0.17 0.18 0.25 0.33 0.33 0.33 0.37